Location: Favalello
(42.2939°N, 9.2706°E)
Time: 04:56:56
(UTC+00:00)

CSL-04 Debris - Pass Details

Date: 06 December 2019
Orbit: 827 x 848 km, 99.0° (Epoch: 25 January)

Event Time Altitude Azimuth Distance (km) Brightness Sun altitude
Rises 17:40:32 0° 158° (SSE) 3,393 7.3 -19.7°
Reaches altitude 10° 17:42:53 10° 156° (SSE) 2,459 6.5 -20.1°
Maximum altitude 17:48:19 72° 73° (ENE) 887 4.0 -21.1°
Drops below altitude 10° 17:53:45 10° 350° (N) 2,463 6.6 -22.1°
Sets 17:56:07 0° 349° (NNW) 3,398 7.4 -22.5°
